Regional Weather Roundup
Issued by NWS

Home | Current Version | Previous Version | Graphics & Text | Print | Product List | Glossary On
Versions: 1 2 3 4 5 6 7 8 9 10 11 12 13 14 15 16 17 18 19 20 21 22 23 24 25 26 27 28 29 30 31 32 33 34 35 36 37 38 39 40 41 42 43 44 45 46 47 48 49 50
000
ASUS43 KMKX 300300
RWRWI

WISCONSIN REGIONAL WEATHER ROUNDUP
NATIONAL WEATHER SERVICE MILWAUKEE/SULLIVAN WI
1000 PM CDT TUE JUL 29 2014

NOTE: "FAIR" INDICATES FEW OR NO CLOUDS BELOW 12,000 FEET WITH NO
SIGNIFICANT WEATHER AND/OR OBSTRUCTIONS TO VISIBILITY.

WIZ001-002-006>008-014>016-023>028-300400-
NORTHWEST WISCONSIN

CITY           SKY/WX    TMP DP  RH WIND       PRES   REMARKS
SUPERIOR ARPT  MOCLDY    55  55  98 W5        30.04S
ASHLAND        MOCLDY    57  55  93 W6        30.03R
HAYWARD        LGT RAIN  59  58  96 E3        30.04F
SIREN          MOCLDY    62  56  82 CALM      30.05R
RICE LAKE      CLOUDY    60  58  91 CALM      30.06S
LADYSMITH      MOCLDY    59  57  94 CALM      30.06R
EAU CLAIRE     NOT AVBL
MENOMONIE      MOCLDY    62  57  84 CALM      30.06S
NEW RICHMOND   CLEAR     64  55  73 E5        30.07R
OSCEOLA        PTCLDY    65  56  72 SE3       30.08R
$$

WIZ003>005-009-010-017-018-300400-
NORTH CENTRAL WISCONSIN

CITY           SKY/WX    TMP DP  RH WIND       PRES   REMARKS
WOODRUFF       MOCLDY    59  52  77 CALM      30.03R
RHINELANDER    PTCLDY    56  55  97 W3        30.03R
EAGLE RIVER    MOCLDY    58  53  83 CALM      30.02R
LAND O LAKES   PTCLDY    59  52  78 N3        30.03R
PHILLIPS       RAIN      56  56  97 CALM      30.03S
TOMAHAWK       MOCLDY    52  51  95 CALM      30.04S FOG
MEDFORD        CLOUDY    56  55  94 W5        30.04S
MERRILL        MOCLDY    58  56  96 CALM      30.03R
$$

WIZ029-030-035-036-043>047-300400-
CENTRAL WISCONSIN

CITY           SKY/WX    TMP DP  RH WIND       PRES   REMARKS
WAUSAU         CLOUDY    60  57  89 NW5       30.00S
MOSINEE        PTCLDY    61  55  82 NW8       30.03R
MARSHFIELD     CLOUDY    60  56  86 W6        30.02F
STEVENS POINT  CLOUDY    61  53  73 NW3       30.02S
WAUPACA        CLOUDY    62  60  93 CALM      30.01R
WAUTOMA        NOT AVBL
WISC RAPIDS    CLOUDY    62  58  86 W6        30.05R
CAMP DOUGLAS   NOT AVBL
$$

WIZ011>013-019>022-031-037>040-048>050-300400-
NORTHEAST WISCONSIN

CITY           SKY/WX    TMP DP  RH WIND       PRES   REMARKS
ANTIGO         PTCLDY    56  55  94 NW7       30.02R
STURGEON BAY   CLOUDY    59  54  82 S3        29.98R
GREEN BAY      MOCLDY    60  58  92 W6        29.98R
MANITOWOC      NOT AVBL
APPLETON       MOCLDY    59  57  94 W12       30.00R
CLINTONVILLE   MOCLDY    61  57  88 W5        30.00R
OSHKOSH        PTCLDY    60  57  89 VRB3      30.00R
$$

WIZ032>034-041-042-053>061-300400-
SOUTHWEST WISCONSIN

CITY           SKY/WX    TMP DP  RH WIND       PRES   REMARKS
LA CROSSE      LGT RAIN  65  62  90 NW6       30.05R
SPARTA         MOCLDY    58  57  96 CALM      30.05S
VIROQUA        CLOUDY    61  60  98 CALM      30.05F
BOSCOBEL       LGT RAIN  63  59  87 CALM      30.06R
PRAIRIE DU CHI MOCLDY    68  55  63 NE6       30.05R
PLATTEVILLE    CLOUDY    64  58  80 NE6       30.07R
$$

WIZ056-057-062-063-064-067-068-300400-
SOUTH CENTRAL WISCONSIN

CITY           SKY/WX    TMP DP  RH WIND       PRES   REMARKS
BARABOO/DELLS  MOCLDY    61  56  83 CALM      30.04S
LONE ROCK      NOT AVBL
WATERTOWN      PTCLDY    58  57  97 CALM      30.02F
MADISON        MOCLDY    64  58  80 NW3       30.04S
MIDDLETON      MOCLDY    63  57  81 CALM      30.04S
MONROE         MOCLDY    64  54  68 W8        30.03R
JANESVILLE     MOCLDY    64  54  68 NE5       30.03R
$$

WIZ051-052-058>065-066-070>072-300400-
SOUTHEAST WISCONSIN

CITY           SKY/WX    TMP DP  RH WIND       PRES   REMARKS
MILWAUKEE      LGT RAIN  61  57  87 SW6       30.01F
WAUKESHA       CLOUDY    57  54  88 CALM      30.03F
MILWAUKEE/TIMM LGT RAIN  59  55  88 SW3       30.03F
RACINE         LGT RAIN  61  58  90 NW3       30.04F
BURLINGTON     LGT RAIN  57  56  94 NW3       30.06S
KENOSHA        LGT RAIN  60  58  92 NE6       30.04F
FOND DU LAC    PTCLDY    59  56  89 SW8       30.01R
SHEBOYGAN      MOCLDY    59  56  89 W7        29.99R
WEST BEND      PTCLDY    57  54  88 SW5       30.01S
JUNEAU         PTCLDY    58  55  91 S6        30.03F
$$

LSZ147-162-300400-
LAKE SUPERIOR

STATION/POSITION TIME  TEMP    WIND        PRES    WAVE
                       AIR SEA DIR/SP/G            HT/PER
                 (UTC) (F)     (DEG/KT/KT) (MB)    (FT/S)
W MID LAKE BUOY  0150   48 44  310/  6/  6 1016.1R   0
PORT WING        0200   60     210/  6     1016.9S
SAXON HARBOR     0200          190/  4/  6 1015.9S
$$

LMZ867-665-643>646-300400-
LAKE MICHIGAN

STATION/POSITION TIME  TEMP    WIND        PRES    WAVE
                       AIR SEA DIR/SP/G            HT/PER
                 (UTC) (F)     (DEG/KT/KT) (MB)    (FT/S)
N MID LAKE BUOY  0150   58 55  220/  2/  2 1014.5R   0
NORTHPORT PIER   0200   63      70/  3/  3 1014.6S
SISTER BAY       0225   63      CALM  /  6   N/A
KEWAUNEE LAKESHO 0200   62     290/  7/  9 1015.2F
SHEBOYGAN LAKESH 0200   63     260/ 12/ 13 1015.0F
PORT WASHINGTON  0200   62     270/  5/ 11 1016.6F
ATWATER BUOY     0200   62     270/ 14     1018.0R
MILWAUKEE LAKESH 0200   62     300/ 11/ 15   N/A
S MID LAKE BUOY  0150   62 61  260/  8/ 12 1015.6R   0
KENOSHA   LAKESH 0200   65      30/ 20/ 24 1015.6R
$$

TC  - TEMPERATURE IN CELSIUS
VSB - VISIBILITY IN STATUTE MILES
WCI - WIND CHILL INDEX
HX  - HEAT INDEX




USA.gov is the U.S. government's official web portal to all federal, state and local government web resources and services.